Location: Chinna Viriv?da
(16.5281°N, 81.0493°E)
Time: 14:13:55
(UTC+00:00)

Meteor 1-22 Rocket - Pass Details

Date: 14 April 2026
Orbit: 786 x 939 km, 81.2° (Epoch: 11 May)

Event Time Altitude Azimuth Distance (km) Brightness Sun altitude
Rises 13:15:05 0° 189° (S) 3,313 7.3 -6.5°
Reaches altitude 10° 13:17:25 10° 191° (S) 2,400 6.6 -7.0°
Maximum altitude 13:22:50 75° 276° (W) 868 4.5 -8.3°
Drops below altitude 10° 13:28:30 10° 1° (N) 2,503 6.8 -9.6°
Sets 13:31:00 0° 3° (N) 3,466 7.5 -10.2°
